SCP
0 0 2 2 2 1 1 1 1 1 1 1 0 0 0 0 0 0 0 0 0 0 0 0 0 0 0 0 0 0 0 0
0 0 0 1 0 0 0 0 0 0 0 0 0 0 0 0 0 0 0 0 0 0 0 0 0 0 0 0 0 0 0 0
0 0 0 0 0 0 0 0 0 0 0 0 0 0 0 0 0 0 0 0 0 0 0 0 0 0 0 0 0 0 0 0
0 0 0 0 0 1 0 0 0 0 0 0 0 0 0 0 0 0 0 0 0 0 0 0 0 0 0 0 0 0 0 0
0 0 0 0 0 0 0 0 0 0 0 0 0 0 0 0 0 0 0 0 0 0 0 0 0 0 0 0 0 0 0 0
0 0 0 0 0 0 0 0 0 0 0 0 0 0 0 0 0 0 0 0 0 0 0 0 0 0 0 0 0 0 0 0
0 0 0 0 0 0 0 0 0 0 0 0 0 0 0 0 0 0 0 0 0 0 0 0 0 0 0 0 0 0 0 0
0 0 0 0 0 0 0 0 0 0 0 0 0 0 0 0 0 0 0 0 0 0 0 0 0 0 0 0 0 0 0 0
0 0 0 0 0 0 0 0 0 0 0 0 0 0 0 0 0 0 0 0 0 0 0 0 0 0 0 0 0 0 0 0
0 0 0 0 0 0 0 0 0 0 0 0 0 0 0 0 0 0 0 0 0 0 0 0 0 0 0 0 0 0 0 0
0 0 0 0 0 0 0 0 0 0 0 0 0 0 0 0 0 0 0 0 0 0 0 0 0 0 0 0 0 0 0 0
0 0 0 0 0 0 0 0 0 0 0 0 0 0 0 0 0 0 0 0 0 0 0 -0 0 0 0 0 0 0 0 0
0 0 0 0 0 0 0 0 0 0 0 0 0 0 0 0 0 0 0 0 0 0 0 -0 0 0 0 0 0 0 0 0
0 0 0 0 0 0 0 0 0 0 0 0 0 0 0 0 0 0 0 0 0 0 0 0 0 0 0 0 0 0 0 0
0 0 0 0 0 0 0 0 0 0 0 0 0 0 0 0 -0 -0 0 0 0 -0 0 0 0 0 0 0 0 0 0 0
0 0 0 0 0 0 0 0 0 0 0 0 0 0 0 0 -0 0 0 -0 0 -0 -0 0 0 0 0 0 0 0 0 0
0 0 0 0 0 0 0 0 0 0 0 0 0 0 0 0 0 -0 0 -0 0 -0 -0 0 0 0 0 0 0 0 0 0
0 0 0 0 0 0 0 0 0 0 0 0 0 0 0 0 0 -0 -0 0 -0 -0 -0 0 0 0 0 0 0 0 0 0
0 0 0 0 0 0 0 0 0 0 0 0 0 0 0 -0 -0 0 0 -0 -0 -0 -0 0 0 0 0 0 0 0 0 0
Wind_Speed_500mb
14 11 18 14 15 25 32 38 38 35 36 39 42 40 41 42 39 39 41 41 43 40 36 34 27 28 31 30 27 28 32 36
22 22 26 26 30 33 36 33 30 32 36 39 41 42 44 42 42 43 44 44 44 43 40 40 37 32 37 35 32 29 31 35
27 30 32 36 28 36 32 34 39 32 29 32 38 44 46 46 46 47 47 48 50 50 46 43 41 34 37 39 35 32 33 35
14 20 21 23 21 25 23 32 32 36 33 36 33 35 40 44 46 47 50 49 49 52 53 49 46 41 38 44 42 35 34 36
10 14 15 11 19 29 32 38 36 33 36 35 34 31 31 33 36 33 32 30 35 43 43 44 47 43 35 47 46 35 34 36
14 22 24 19 31 40 44 32 25 27 32 33 39 47 47 43 32 26 22 25 25 28 37 42 45 45 37 47 41 41 33 35
35 28 23 28 39 45 36 17 23 26 32 41 46 37 46 38 33 26 22 24 30 33 33 36 41 44 41 45 44 39 33 31
31 28 29 33 43 44 39 28 27 32 32 39 37 44 24 28 23 21 21 18 23 35 32 33 40 43 41 43 42 34 33 28
23 22 26 36 36 40 37 30 26 28 28 35 46 31 27 25 27 26 23 25 26 26 26 31 44 44 40 35 36 30 19 30
28 23 25 33 36 34 36 31 30 28 30 33 22 23 27 30 32 36 28 25 26 28 30 28 45 43 35 31 41 28 23 35
26 23 30 27 27 25 33 31 36 29 31 27 25 23 27 33 31 29 25 23 22 29 34 30 39 46 37 39 43 33 34 32
35 31 25 22 14 19 31 38 40 34 34 33 27 25 23 27 33 25 21 22 20 26 43 33 32 40 39 44 41 38 37 38
35 24 23 24 18 22 28 28 27 28 30 31 29 26 31 33 32 26 19 17 13 24 41 37 35 44 42 39 36 39 34 31
31 20 20 23 15 21 28 25 23 20 25 27 24 25 28 30 32 28 20 11 7 23 36 41 38 42 42 36 38 35 33 37
26 19 18 15 17 21 21 26 21 21 23 27 24 23 21 23 22 23 16 10 14 26 36 39 37 42 33 30 42 36 34 40
22 17 14 8 19 19 20 19 16 23 24 24 25 24 19 18 18 12 14 12 22 28 39 41 38 39 38 38 48 38 39 40
23 14 10 11 14 11 14 17 22 24 25 22 24 23 14 14 16 10 10 15 23 27 42 46 42 42 44 43 48 54 37 41
22 16 11 15 10 9 17 21 24 18 21 16 20 21 6 11 11 14 14 15 16 27 40 46 41 47 50 46 52 47 34 22
20 18 14 18 5 5 14 24 25 22 26 14 22 22 5 5 9 13 18 19 20 27 37 41 48 52 53 50 35 53 30 60
Wind_Direction_500mb
216 230 230 245 274 296 302 301 295 282 271 269 269 274 278 279 276 275 273 268 270 266 267 266 254 248 239 228 236 244 239 230
211 233 247 263 293 306 309 306 309 296 280 274 272 271 272 270 269 269 269 268 265 266 262 258 265 244 240 228 225 236 231 232
217 241 271 271 281 304 310 311 313 311 304 300 289 278 275 275 276 276 273 267 263 259 258 256 248 246 235 229 225 225 231 227
229 267 271 274 305 296 294 303 303 306 308 311 307 286 278 278 278 277 273 265 259 256 253 249 245 240 237 228 225 223 224 226
277 237 233 249 276 282 290 300 301 309 309 309 309 309 300 292 286 278 271 270 262 252 252 244 241 231 239 225 224 226 226 224
230 193 198 248 277 285 296 301 299 300 305 298 300 309 313 307 296 279 279 268 270 258 246 240 234 224 230 225 222 220 225 220
169 186 243 269 293 298 308 284 289 299 293 290 297 301 302 301 293 288 284 266 253 257 257 231 227 218 225 222 220 216 219 214
207 240 258 282 295 314 315 308 283 264 279 286 285 294 292 311 301 292 287 285 263 255 249 240 218 212 216 216 215 211 213 206
212 227 261 290 302 311 319 321 303 265 264 280 293 292 298 307 315 294 296 286 260 257 248 241 217 208 211 214 205 182 197 193
220 248 274 293 307 320 324 336 329 312 282 286 285 285 292 292 312 308 292 288 267 244 237 233 210 206 204 203 185 192 196 179
239 259 283 292 320 318 328 319 313 317 315 287 278 273 284 279 292 295 291 290 270 239 225 219 210 208 205 186 181 188 200 190
237 261 279 301 308 300 305 307 304 309 310 303 285 278 279 271 276 283 291 286 283 236 212 211 206 202 192 181 179 197 195 210
227 249 267 290 288 285 302 312 315 307 310 307 299 285 264 266 277 278 281 280 276 213 202 195 193 189 188 192 197 197 199 208
220 249 257 281 288 293 309 326 328 332 330 320 309 295 272 261 259 264 265 270 224 185 185 189 185 188 195 192 187 188 194 190
222 253 262 287 298 307 319 331 318 329 336 345 334 310 288 260 244 246 257 248 191 182 184 188 193 192 192 190 172 174 177 172
215 243 263 276 285 312 335 345 343 333 329 333 349 329 311 245 217 204 241 216 189 186 193 181 183 193 185 172 160 156 157 165
213 228 230 264 274 342 348 344 347 334 322 335 342 354 356 173 185 185 180 176 176 179 185 190 179 175 165 169 159 149 140 158
203 213 238 225 275 329 340 343 353 336 340 329 354 355 24 140 169 176 181 161 160 186 188 190 185 180 169 175 171 163 150 154
198 210 197 235 209 289 345 351 358 356 348 327 338 348 74 209 184 174 179 159 176 177 180 186 182 185 183 167 161 164 167 159
Wind_Speed_850mb
14 11 18 14 15 25 32 38 38 35 36 39 42 40 41 42 39 39 41 41 43 40 36 34 27 28 31 30 27 28 32 36
22 22 26 26 30 33 36 33 30 32 36 39 41 42 44 42 42 43 44 44 44 43 40 40 37 32 37 35 32 29 31 35
27 30 32 36 28 36 32 34 39 32 29 32 38 44 46 46 46 47 47 48 50 50 46 43 41 34 37 39 35 32 33 35
14 20 21 23 21 25 23 32 32 36 33 36 33 35 40 44 46 47 50 49 49 52 53 49 46 41 38 44 42 35 34 36
10 14 15 11 19 29 32 38 36 33 36 35 34 31 31 33 36 33 32 30 35 43 43 44 47 43 35 47 46 35 34 36
14 22 24 19 31 40 44 32 25 27 32 33 39 47 47 43 32 26 22 25 25 28 37 42 45 45 37 47 41 41 33 35
35 28 23 28 39 45 36 17 23 26 32 41 46 37 46 38 33 26 22 24 30 33 33 36 41 44 41 45 44 39 33 31
31 28 29 33 43 44 39 28 27 32 32 39 37 44 24 28 23 21 21 18 23 35 32 33 40 43 41 43 42 34 33 28
23 22 26 36 36 40 37 30 26 28 28 35 46 31 27 25 27 26 23 25 26 26 26 31 44 44 40 35 36 30 19 30
28 23 25 33 36 34 36 31 30 28 30 33 22 23 27 30 32 36 28 25 26 28 30 28 45 43 35 31 41 28 23 35
26 23 30 27 27 25 33 31 36 29 31 27 25 23 27 33 31 29 25 23 22 29 34 30 39 46 37 39 43 33 34 32
35 31 25 22 14 19 31 38 40 34 34 33 27 25 23 27 33 25 21 22 20 26 43 33 32 40 39 44 41 38 37 38
35 24 23 24 18 22 28 28 27 28 30 31 29 26 31 33 32 26 19 17 13 24 41 37 35 44 42 39 36 39 34 31
31 20 20 23 15 21 28 25 23 20 25 27 24 25 28 30 32 28 20 11 7 23 36 41 38 42 42 36 38 35 33 37
26 19 18 15 17 21 21 26 21 21 23 27 24 23 21 23 22 23 16 10 14 26 36 39 37 42 33 30 42 36 34 40
22 17 14 8 19 19 20 19 16 23 24 24 25 24 19 18 18 12 14 12 22 28 39 41 38 39 38 38 48 38 39 40
23 14 10 11 14 11 14 17 22 24 25 22 24 23 14 14 16 10 10 15 23 27 42 46 42 42 44 43 48 54 37 41
22 16 11 15 10 9 17 21 24 18 21 16 20 21 6 11 11 14 14 15 16 27 40 46 41 47 50 46 52 47 34 22
20 18 14 18 5 5 14 24 25 22 26 14 22 22 5 5 9 13 18 19 20 27 37 41 48 52 53 50 35 53 30 60
Wind_Direction_850mb
216 230 230 245 274 296 302 301 295 282 271 269 269 274 278 279 276 275 273 268 270 266 267 266 254 248 239 228 236 244 239 230
211 233 247 263 293 306 309 306 309 296 280 274 272 271 272 270 269 269 269 268 265 266 262 258 265 244 240 228 225 236 231 232
217 241 271 271 281 304 310 311 313 311 304 300 289 278 275 275 276 276 273 267 263 259 258 256 248 246 235 229 225 225 231 227
229 267 271 274 305 296 294 303 303 306 308 311 307 286 278 278 278 277 273 265 259 256 253 249 245 240 237 228 225 223 224 226
277 237 233 249 276 282 290 300 301 309 309 309 309 309 300 292 286 278 271 270 262 252 252 244 241 231 239 225 224 226 226 224
230 193 198 248 277 285 296 301 299 300 305 298 300 309 313 307 296 279 279 268 270 258 246 240 234 224 230 225 222 220 225 220
169 186 243 269 293 298 308 284 289 299 293 290 297 301 302 301 293 288 284 266 253 257 257 231 227 218 225 222 220 216 219 214
207 240 258 282 295 314 315 308 283 264 279 286 285 294 292 311 301 292 287 285 263 255 249 240 218 212 216 216 215 211 213 206
212 227 261 290 302 311 319 321 303 265 264 280 293 292 298 307 315 294 296 286 260 257 248 241 217 208 211 214 205 182 197 193
220 248 274 293 307 320 324 336 329 312 282 286 285 285 292 292 312 308 292 288 267 244 237 233 210 206 204 203 185 192 196 179
239 259 283 292 320 318 328 319 313 317 315 287 278 273 284 279 292 295 291 290 270 239 225 219 210 208 205 186 181 188 200 190
237 261 279 301 308 300 305 307 304 309 310 303 285 278 279 271 276 283 291 286 283 236 212 211 206 202 192 181 179 197 195 210
227 249 267 290 288 285 302 312 315 307 310 307 299 285 264 266 277 278 281 280 276 213 202 195 193 189 188 192 197 197 199 208
220 249 257 281 288 293 309 326 328 332 330 320 309 295 272 261 259 264 265 270 224 185 185 189 185 188 195 192 187 188 194 190
222 253 262 287 298 307 319 331 318 329 336 345 334 310 288 260 244 246 257 248 191 182 184 188 193 192 192 190 172 174 177 172
215 243 263 276 285 312 335 345 343 333 329 333 349 329 311 245 217 204 241 216 189 186 193 181 183 193 185 172 160 156 157 165
213 228 230 264 274 342 348 344 347 334 322 335 342 354 356 173 185 185 180 176 176 179 185 190 179 175 165 169 159 149 140 158
203 213 238 225 275 329 340 343 353 336 340 329 354 355 24 140 169 176 181 161 160 186 188 190 185 180 169 175 171 163 150 154
198 210 197 235 209 289 345 351 358 356 348 327 338 348 74 209 184 174 179 159 176 177 180 186 182 185 183 167 161 164 167 159